Year,Month,Day,Hour,Minute,Value (Times are PST for temperature in C)
2008,06,04,00,00,10.20
2008,06,04,00,02,10.20
2008,06,04,00,03,10.20
2008,06,04,00,04,10.20
2008,06,04,00,05,10.20
2008,06,04,00,06,10.20
2008,06,04,00,07,10.20
2008,06,04,00,08,10.20
2008,06,04,00,09,10.20
2008,06,04,00,10,10.20
2008,06,04,00,11,10.20
2008,06,04,00,12,10.10
2008,06,04,00,13,10.10
2008,06,04,00,14,10.10
2008,06,04,00,15,10.10
2008,06,04,00,16,10.10
2008,06,04,00,17,10.10
2008,06,04,00,18,10.10
2008,06,04,00,19,10.10
2008,06,04,00,20,10.10
2008,06,04,00,21,10.10
2008,06,04,00,22,10.10
2008,06,04,00,23,10.10
2008,06,04,00,24,10.10
2008,06,04,00,25,10.10
2008,06,04,00,26,10.10
2008,06,04,00,27,10.10
2008,06,04,00,29,10.10
2008,06,04,00,30,10.10
2008,06,04,00,31,10.10
2008,06,04,00,32,10.10
2008,06,04,00,33,10.10
2008,06,04,00,34,10.10
2008,06,04,00,35,10.10
2008,06,04,00,36,10.10
2008,06,04,00,37,10.10
2008,06,04,00,39,10.10
2008,06,04,00,40,10.10
2008,06,04,00,41,10.00
2008,06,04,00,42,10.00
2008,06,04,00,43,10.00
2008,06,04,00,44,10.10
2008,06,04,00,45,10.10
2008,06,04,00,47,10.00
2008,06,04,00,48,10.00
2008,06,04,00,49,10.00
2008,06,04,00,50,10.00
2008,06,04,00,51,10.00
2008,06,04,00,52,10.00
2008,06,04,00,53,10.00
2008,06,04,00,54,10.00
2008,06,04,00,55,10.00
2008,06,04,00,56,10.00
2008,06,04,00,57,10.00
2008,06,04,00,58,10.00
2008,06,04,00,59,10.00
2008,06,04,01,00,10.00
2008,06,04,01,01,9.90
2008,06,04,01,02,10.00
2008,06,04,01,04,9.90
2008,06,04,01,05,10.00
2008,06,04,01,06,9.90
2008,06,04,01,07,9.90
2008,06,04,01,08,9.90
2008,06,04,01,09,9.90
2008,06,04,01,10,9.90
2008,06,04,01,11,9.90
2008,06,04,01,12,9.90
2008,06,04,01,13,9.90
2008,06,04,01,14,9.90
2008,06,04,01,15,9.90
2008,06,04,01,16,9.90
2008,06,04,01,17,9.90
2008,06,04,01,18,9.90
2008,06,04,01,19,9.90
2008,06,04,01,20,9.90
2008,06,04,01,21,9.90
2008,06,04,01,22,9.80
2008,06,04,01,23,9.80
2008,06,04,01,24,9.80
2008,06,04,01,25,9.80
2008,06,04,01,26,9.80
2008,06,04,01,27,9.80
2008,06,04,01,28,9.80
2008,06,04,01,29,9.80
2008,06,04,01,30,9.80
2008,06,04,01,31,9.80
2008,06,04,01,32,9.80
2008,06,04,01,33,9.80
2008,06,04,01,34,9.80
2008,06,04,01,35,9.80
2008,06,04,01,36,9.80
2008,06,04,01,37,9.80
2008,06,04,01,38,9.80
2008,06,04,01,39,9.80
2008,06,04,01,40,9.80
2008,06,04,01,41,9.80
2008,06,04,01,42,9.80
2008,06,04,01,43,9.80
2008,06,04,01,44,9.80
2008,06,04,01,45,9.80
2008,06,04,01,46,9.80
2008,06,04,01,47,9.80
2008,06,04,01,48,9.80
2008,06,04,01,49,9.80
2008,06,04,01,50,9.80
2008,06,04,01,51,9.80
2008,06,04,01,53,9.80
2008,06,04,01,54,9.80
2008,06,04,01,55,9.80
2008,06,04,01,56,9.80
2008,06,04,01,57,9.80
2008,06,04,01,58,9.80
2008,06,04,01,59,9.80
2008,06,04,02,00,9.80
2008,06,04,02,01,9.80
2008,06,04,02,02,9.80
2008,06,04,02,04,9.80
2008,06,04,02,05,9.80
2008,06,04,02,06,9.80
2008,06,04,02,07,9.80
2008,06,04,02,08,9.80
2008,06,04,02,09,9.80
2008,06,04,02,10,9.80
2008,06,04,02,11,9.80
2008,06,04,02,12,9.80
2008,06,04,02,13,9.80
2008,06,04,02,14,9.80
2008,06,04,02,15,9.80
2008,06,04,02,16,9.80
2008,06,04,02,17,9.80
2008,06,04,02,18,9.80
2008,06,04,02,19,9.80
2008,06,04,02,20,9.80
2008,06,04,02,22,9.80
2008,06,04,02,23,9.80
2008,06,04,02,24,9.80
2008,06,04,02,25,9.80
2008,06,04,02,26,9.80
2008,06,04,02,27,9.80
2008,06,04,02,28,9.80
2008,06,04,02,29,9.80
2008,06,04,02,30,9.80
2008,06,04,02,31,9.80
2008,06,04,02,32,9.80
2008,06,04,02,33,9.80
2008,06,04,02,34,9.80
2008,06,04,02,36,9.80
2008,06,04,02,37,9.80
2008,06,04,02,38,9.80
2008,06,04,02,39,9.80
2008,06,04,02,40,9.80
2008,06,04,02,41,9.80
2008,06,04,02,42,9.80
2008,06,04,02,43,9.80
2008,06,04,02,44,9.80
2008,06,04,02,45,9.80
2008,06,04,02,46,9.80
2008,06,04,02,47,9.80
2008,06,04,02,48,9.80
2008,06,04,02,49,9.80
2008,06,04,02,50,9.80
2008,06,04,02,51,9.80
2008,06,04,02,53,9.80
2008,06,04,02,54,9.80
2008,06,04,02,55,9.80
2008,06,04,02,56,9.80
2008,06,04,02,57,9.80
2008,06,04,02,58,9.70
2008,06,04,02,59,9.80
2008,06,04,03,00,9.80
2008,06,04,03,01,9.70
2008,06,04,03,02,9.80
2008,06,04,03,03,9.80
2008,06,04,03,05,9.70
2008,06,04,03,06,9.70
2008,06,04,03,07,9.70
2008,06,04,03,08,9.70
2008,06,04,03,09,9.70
2008,06,04,03,10,9.70
2008,06,04,03,11,9.70
2008,06,04,03,12,9.70
2008,06,04,03,13,9.70
2008,06,04,03,14,9.70
2008,06,04,03,15,9.70
2008,06,04,03,16,9.70
2008,06,04,03,17,9.70
2008,06,04,03,18,9.70
2008,06,04,03,19,9.70
2008,06,04,03,20,9.70
2008,06,04,03,21,9.70
2008,06,04,03,22,9.70
2008,06,04,03,23,9.70
2008,06,04,03,24,9.70
2008,06,04,03,25,9.70
2008,06,04,03,26,9.70
2008,06,04,03,27,9.70
2008,06,04,03,28,9.70
2008,06,04,03,29,9.70
2008,06,04,03,30,9.70
2008,06,04,03,31,9.70
2008,06,04,03,32,9.70
2008,06,04,03,33,9.70
2008,06,04,03,34,9.70
2008,06,04,03,35,9.70
2008,06,04,03,36,9.70
2008,06,04,03,37,9.70
2008,06,04,03,38,9.70
2008,06,04,03,39,9.70
2008,06,04,03,40,9.70
2008,06,04,03,41,9.70
2008,06,04,03,42,9.70
2008,06,04,03,43,9.70
2008,06,04,03,44,9.70
2008,06,04,03,45,9.70
2008,06,04,03,46,9.70
2008,06,04,03,47,9.70
2008,06,04,03,48,9.70
2008,06,04,03,49,9.70
2008,06,04,03,50,9.70
2008,06,04,03,51,9.70
2008,06,04,03,52,9.70
2008,06,04,03,53,9.70
2008,06,04,03,54,9.70
2008,06,04,03,55,9.70
2008,06,04,03,56,9.70
2008,06,04,03,57,9.70
2008,06,04,03,58,9.70
2008,06,04,03,59,9.70
2008,06,04,04,00,9.70
2008,06,04,04,01,9.70
2008,06,04,04,02,9.70
2008,06,04,04,03,9.70
2008,06,04,04,04,9.70
2008,06,04,04,05,9.70
2008,06,04,04,06,9.70
2008,06,04,04,07,9.70
2008,06,04,04,08,9.70
2008,06,04,04,09,9.70
2008,06,04,04,10,9.70
2008,06,04,04,11,9.70
2008,06,04,04,12,9.70
2008,06,04,04,13,9.70
2008,06,04,04,14,9.70
2008,06,04,04,15,9.70
2008,06,04,04,16,9.70
2008,06,04,04,17,9.70
2008,06,04,04,18,9.70
2008,06,04,04,19,9.70
2008,06,04,04,20,9.70
2008,06,04,04,22,9.70
2008,06,04,04,23,9.70
2008,06,04,04,24,9.70
2008,06,04,04,25,9.70
2008,06,04,04,26,9.70
2008,06,04,04,27,9.70
2008,06,04,04,28,9.70
2008,06,04,04,29,9.70
2008,06,04,04,30,9.70
2008,06,04,04,31,9.70
2008,06,04,04,32,9.70
2008,06,04,04,33,9.70
2008,06,04,04,34,9.70
2008,06,04,04,35,9.70
2008,06,04,04,36,9.70
2008,06,04,04,37,9.70
2008,06,04,04,38,9.70
2008,06,04,04,39,9.70
2008,06,04,04,40,9.70
2008,06,04,04,41,9.70
2008,06,04,04,42,9.70
2008,06,04,04,43,9.70
2008,06,04,04,44,9.70
2008,06,04,04,45,9.70
2008,06,04,04,46,9.70
2008,06,04,04,47,9.70
2008,06,04,04,48,9.70
2008,06,04,04,49,9.70
2008,06,04,04,50,9.70
2008,06,04,04,51,9.70
2008,06,04,04,52,9.70
2008,06,04,04,53,9.70
2008,06,04,04,54,9.70
2008,06,04,04,55,9.70
2008,06,04,04,56,9.70
2008,06,04,04,57,9.70
2008,06,04,04,58,9.70
2008,06,04,04,59,9.70
2008,06,04,05,00,9.70
2008,06,04,05,01,9.70
2008,06,04,05,02,9.70
2008,06,04,05,03,9.70
2008,06,04,05,04,9.70
2008,06,04,05,06,9.70
2008,06,04,05,07,9.70
2008,06,04,05,08,9.70
2008,06,04,05,09,9.80
2008,06,04,05,10,9.80
2008,06,04,05,11,9.70
2008,06,04,05,12,9.80
2008,06,04,05,13,9.80
2008,06,04,05,14,9.80
2008,06,04,05,15,9.80
2008,06,04,05,16,9.80
2008,06,04,05,17,9.80
2008,06,04,05,18,9.80
2008,06,04,05,19,9.80
2008,06,04,05,20,9.80
2008,06,04,05,21,9.80
2008,06,04,05,22,9.80
2008,06,04,05,23,9.80
2008,06,04,05,24,9.80
2008,06,04,05,25,9.80
2008,06,04,05,26,9.80
2008,06,04,05,27,9.80
2008,06,04,05,28,9.80
2008,06,04,05,29,9.80
2008,06,04,05,30,9.80
2008,06,04,05,31,9.80
2008,06,04,05,32,9.80
2008,06,04,05,33,9.80
2008,06,04,05,34,9.80
2008,06,04,05,35,9.80
2008,06,04,05,36,9.80
2008,06,04,05,37,9.80
2008,06,04,05,38,9.80
2008,06,04,05,39,9.80
2008,06,04,05,40,9.80
2008,06,04,05,41,9.80
2008,06,04,05,42,9.80
2008,06,04,05,43,9.80
2008,06,04,05,44,9.80
2008,06,04,05,45,9.80
2008,06,04,05,46,9.80
2008,06,04,05,47,9.80
2008,06,04,05,48,9.80
2008,06,04,05,49,9.80
2008,06,04,05,50,9.90
2008,06,04,05,51,9.90
2008,06,04,05,52,9.90
2008,06,04,05,53,9.90
2008,06,04,05,54,9.90
2008,06,04,05,55,9.90
2008,06,04,05,56,9.90
2008,06,04,05,57,9.90
2008,06,04,05,58,9.90
2008,06,04,05,59,9.90
2008,06,04,06,00,9.90
2008,06,04,06,01,9.90
2008,06,04,06,02,9.90
2008,06,04,06,03,9.90
2008,06,04,06,04,9.90
2008,06,04,06,05,9.90
2008,06,04,06,06,9.90
2008,06,04,06,07,9.90
2008,06,04,06,08,9.90
2008,06,04,06,09,9.90
2008,06,04,06,10,9.90
2008,06,04,06,11,9.90
2008,06,04,06,12,10.00
2008,06,04,06,13,10.00
2008,06,04,06,14,10.00
2008,06,04,06,15,10.00
2008,06,04,06,16,10.00
2008,06,04,06,17,10.00
2008,06,04,06,18,10.10
2008,06,04,06,19,10.10
2008,06,04,06,20,10.10
2008,06,04,06,21,10.10
2008,06,04,06,22,10.10
2008,06,04,06,23,10.10
2008,06,04,06,24,10.10
2008,06,04,06,25,10.10
2008,06,04,06,26,10.10
2008,06,04,06,27,10.10
2008,06,04,06,28,10.10
2008,06,04,06,29,10.10
2008,06,04,06,30,10.10
2008,06,04,06,31,10.10
2008,06,04,06,32,10.10
2008,06,04,06,33,10.10
2008,06,04,06,34,10.20
2008,06,04,06,35,10.20
2008,06,04,06,36,10.20
2008,06,04,06,37,10.20
2008,06,04,06,38,10.20
2008,06,04,06,39,10.20
2008,06,04,06,40,10.20
2008,06,04,06,41,10.20
2008,06,04,06,42,10.20
2008,06,04,06,43,10.20
2008,06,04,06,44,10.20
2008,06,04,06,45,10.20
2008,06,04,06,46,10.20
2008,06,04,06,47,10.20
2008,06,04,06,48,10.20
2008,06,04,06,49,10.20
2008,06,04,06,50,10.20
2008,06,04,06,51,10.20
2008,06,04,06,52,10.20
2008,06,04,06,53,10.20
2008,06,04,06,54,10.20
2008,06,04,06,55,10.20
2008,06,04,06,56,10.20
2008,06,04,06,57,10.20
2008,06,04,06,58,10.20
2008,06,04,06,59,10.20
2008,06,04,07,00,10.20
2008,06,04,07,01,10.20
2008,06,04,07,02,10.30
2008,06,04,07,03,10.30
2008,06,04,07,04,10.30
2008,06,04,07,05,10.30
2008,06,04,07,06,10.30
2008,06,04,07,07,10.30
2008,06,04,07,08,10.30
2008,06,04,07,09,10.30
2008,06,04,07,10,10.30
2008,06,04,07,11,10.40
2008,06,04,07,12,10.40
2008,06,04,07,13,10.40
2008,06,04,07,14,10.40
2008,06,04,07,15,10.40
2008,06,04,07,16,10.40
2008,06,04,07,17,10.40
2008,06,04,07,18,10.40
2008,06,04,07,19,10.40
2008,06,04,07,20,10.40
2008,06,04,07,21,10.50
2008,06,04,07,22,10.50
2008,06,04,07,23,10.50
2008,06,04,07,24,10.50
2008,06,04,07,25,10.50
2008,06,04,07,26,10.50
2008,06,04,07,27,10.50
2008,06,04,07,28,10.60
2008,06,04,07,29,10.60
2008,06,04,07,31,10.60
2008,06,04,07,32,10.60
2008,06,04,07,33,10.60
2008,06,04,07,34,10.60
2008,06,04,07,35,10.60
2008,06,04,07,36,10.60
2008,06,04,07,37,10.70
2008,06,04,07,38,10.70
2008,06,04,07,39,10.70
2008,06,04,07,40,10.70
2008,06,04,07,41,10.70
2008,06,04,07,42,10.70
2008,06,04,07,43,10.70
2008,06,04,07,44,10.80
2008,06,04,07,45,10.80
2008,06,04,07,46,10.80
2008,06,04,07,47,10.80
2008,06,04,07,48,10.80
2008,06,04,07,49,10.90
2008,06,04,07,50,10.90
2008,06,04,07,51,10.90
2008,06,04,07,52,10.90
2008,06,04,07,53,10.90
2008,06,04,07,54,11.00
2008,06,04,07,56,11.00
2008,06,04,07,57,11.00
2008,06,04,07,58,11.10
2008,06,04,07,59,11.10
2008,06,04,08,00,11.10
2008,06,04,08,01,11.10
2008,06,04,08,02,11.10
2008,06,04,08,03,11.10
2008,06,04,08,04,11.10
2008,06,04,08,05,11.10
2008,06,04,08,06,11.10
2008,06,04,08,07,11.20
2008,06,04,08,08,11.20
2008,06,04,08,09,11.20
2008,06,04,08,10,11.20
2008,06,04,08,11,11.20
2008,06,04,08,12,11.20
2008,06,04,08,13,11.20
2008,06,04,08,14,11.30
2008,06,04,08,15,11.30
2008,06,04,08,16,11.30
2008,06,04,08,17,11.30
2008,06,04,08,18,11.30
2008,06,04,08,19,11.30
2008,06,04,08,20,11.30
2008,06,04,08,21,11.30
2008,06,04,08,22,11.40
2008,06,04,08,23,11.40
2008,06,04,08,24,11.40
2008,06,04,08,25,11.40
2008,06,04,08,26,11.50
2008,06,04,08,27,11.50
2008,06,04,08,28,11.50
2008,06,04,08,29,11.60
2008,06,04,08,30,11.60
2008,06,04,08,31,11.60
2008,06,04,08,32,11.60
2008,06,04,08,33,11.60
2008,06,04,08,34,11.70
2008,06,04,08,35,11.70
2008,06,04,08,36,11.70
2008,06,04,08,37,11.70
2008,06,04,08,38,11.70
2008,06,04,08,39,11.70
2008,06,04,08,40,11.80
2008,06,04,08,41,11.80
2008,06,04,08,42,11.80
2008,06,04,08,43,11.80
2008,06,04,08,44,11.80
2008,06,04,08,45,11.80
2008,06,04,08,46,11.80
2008,06,04,08,47,11.80
2008,06,04,08,48,11.80
2008,06,04,08,49,11.80
2008,06,04,08,50,11.80
2008,06,04,08,51,11.90
2008,06,04,08,52,11.90
2008,06,04,08,53,11.90
2008,06,04,08,54,11.90
2008,06,04,08,55,11.90
2008,06,04,08,56,11.90
2008,06,04,08,57,11.90
2008,06,04,08,58,12.00
2008,06,04,08,59,11.90
2008,06,04,09,00,11.90
2008,06,04,09,01,11.90
2008,06,04,09,02,11.90
2008,06,04,09,03,11.90
2008,06,04,09,04,11.90
2008,06,04,09,05,11.90
2008,06,04,09,06,11.90
2008,06,04,09,08,11.90
2008,06,04,09,09,11.90
2008,06,04,09,10,11.90
2008,06,04,09,11,11.90
2008,06,04,09,12,11.90
2008,06,04,09,13,11.90
2008,06,04,09,14,11.90
2008,06,04,09,15,11.90
2008,06,04,09,16,11.90
2008,06,04,09,17,11.90
2008,06,04,09,18,11.90
2008,06,04,09,19,11.90
2008,06,04,09,20,11.90
2008,06,04,09,21,12.00
2008,06,04,09,22,12.00
2008,06,04,09,23,12.00
2008,06,04,09,24,12.10
2008,06,04,09,25,12.10
2008,06,04,09,26,12.20
2008,06,04,09,27,12.20
2008,06,04,09,28,12.20
2008,06,04,09,29,12.30
2008,06,04,09,30,12.30
2008,06,04,09,31,12.40
2008,06,04,09,32,12.40
2008,06,04,09,33,12.50
2008,06,04,09,34,12.60
2008,06,04,09,35,12.60
2008,06,04,09,36,12.70
2008,06,04,09,37,12.70
2008,06,04,09,38,12.70
2008,06,04,09,39,12.70
2008,06,04,09,40,12.80
2008,06,04,09,41,12.80
2008,06,04,09,42,12.80
2008,06,04,09,43,12.80
2008,06,04,09,44,12.80
2008,06,04,09,45,12.90
2008,06,04,09,46,12.90
2008,06,04,09,47,12.90
2008,06,04,09,48,12.90
2008,06,04,09,49,13.00
2008,06,04,09,50,13.00
2008,06,04,09,51,13.00
2008,06,04,09,52,13.00
2008,06,04,09,53,13.10
2008,06,04,09,54,13.10
2008,06,04,09,55,13.10
2008,06,04,09,56,13.10
2008,06,04,09,57,13.10
2008,06,04,09,58,13.10
2008,06,04,09,59,13.20
2008,06,04,10,00,13.20
2008,06,04,10,01,13.20
2008,06,04,10,02,13.20
2008,06,04,10,03,13.20
2008,06,04,10,04,13.30
2008,06,04,10,05,13.30
2008,06,04,10,06,13.30
2008,06,04,10,07,13.30
2008,06,04,10,08,13.30
2008,06,04,10,09,13.30
2008,06,04,10,10,13.30
2008,06,04,10,11,13.30
2008,06,04,10,12,13.40
2008,06,04,10,13,13.40
2008,06,04,10,14,13.40
2008,06,04,10,15,13.40
2008,06,04,10,16,13.50
2008,06,04,10,17,13.50
2008,06,04,10,18,13.50
2008,06,04,10,19,13.60
2008,06,04,10,20,13.60
2008,06,04,10,21,13.70
2008,06,04,10,22,13.70
2008,06,04,10,23,13.80
2008,06,04,10,24,13.80
2008,06,04,10,25,14.00
2008,06,04,10,26,14.10
2008,06,04,10,27,14.20
2008,06,04,10,28,14.20
2008,06,04,10,29,14.30
2008,06,04,10,30,14.30
2008,06,04,10,31,14.40
2008,06,04,10,32,14.40
2008,06,04,10,33,14.40
2008,06,04,10,34,14.40
2008,06,04,10,35,14.50
2008,06,04,10,36,14.50
2008,06,04,10,37,14.60
2008,06,04,10,38,14.60
2008,06,04,10,39,14.60
2008,06,04,10,40,14.60
2008,06,04,10,41,14.60
2008,06,04,10,42,14.70
2008,06,04,10,43,14.70
2008,06,04,10,44,14.70
2008,06,04,10,45,14.80
2008,06,04,10,46,14.90
2008,06,04,10,47,15.00
2008,06,04,10,48,15.00
2008,06,04,10,49,15.00
2008,06,04,10,50,15.10
2008,06,04,10,51,15.20
2008,06,04,10,52,15.20
2008,06,04,10,53,15.20
2008,06,04,10,54,15.30
2008,06,04,10,55,15.30
2008,06,04,10,56,15.30
2008,06,04,10,57,15.30
2008,06,04,10,58,15.30
2008,06,04,10,59,15.30
2008,06,04,11,00,15.40
2008,06,04,11,02,15.40
2008,06,04,11,03,15.40
2008,06,04,11,04,15.40
2008,06,04,11,05,15.40
2008,06,04,11,06,15.40
2008,06,04,11,07,15.40
2008,06,04,11,09,15.40
2008,06,04,11,10,15.40
2008,06,04,11,11,15.40
2008,06,04,11,12,15.40
2008,06,04,11,13,15.40
2008,06,04,11,14,15.40
2008,06,04,11,15,15.40
2008,06,04,11,16,15.40
2008,06,04,11,17,15.40
2008,06,04,11,18,15.50
2008,06,04,11,19,15.50
2008,06,04,11,20,15.50
2008,06,04,11,21,15.50
2008,06,04,11,22,15.50
2008,06,04,11,23,15.50
2008,06,04,11,24,15.50
2008,06,04,11,25,15.50
2008,06,04,11,26,15.50
2008,06,04,11,27,15.60
2008,06,04,11,28,15.60
2008,06,04,11,29,15.60
2008,06,04,11,30,15.70
2008,06,04,11,31,15.70
2008,06,04,11,32,15.80
2008,06,04,11,33,15.80
2008,06,04,11,34,15.90
2008,06,04,11,35,16.00
2008,06,04,11,36,16.10
2008,06,04,11,37,16.20
2008,06,04,11,38,16.30
2008,06,04,11,39,16.40
2008,06,04,11,40,16.50
2008,06,04,11,41,16.60
2008,06,04,11,42,16.70
2008,06,04,11,43,16.80
2008,06,04,11,44,16.90
2008,06,04,11,45,16.90
2008,06,04,11,46,16.90
2008,06,04,11,47,17.00
2008,06,04,11,48,17.00
2008,06,04,11,49,17.00
2008,06,04,11,50,17.00
2008,06,04,11,51,17.10
2008,06,04,11,52,17.10
2008,06,04,11,53,17.10
2008,06,04,11,54,17.20
2008,06,04,11,55,17.20
2008,06,04,11,56,17.30
2008,06,04,11,57,17.30
2008,06,04,11,58,17.30
2008,06,04,11,59,17.30
2008,06,04,12,00,17.30
2008,06,04,12,01,17.40
2008,06,04,12,02,17.40
2008,06,04,12,03,17.40
2008,06,04,12,04,17.50
2008,06,04,12,05,17.60
2008,06,04,12,06,17.60
2008,06,04,12,07,17.70
2008,06,04,12,08,17.80
2008,06,04,12,09,17.80
2008,06,04,12,10,17.90
2008,06,04,12,11,17.90
2008,06,04,12,12,17.90
2008,06,04,12,13,17.90
2008,06,04,12,14,17.90
2008,06,04,12,15,17.90
2008,06,04,12,16,17.90
2008,06,04,12,17,17.90
2008,06,04,12,18,18.00
2008,06,04,12,19,18.00
2008,06,04,12,20,18.10
2008,06,04,12,21,18.20
2008,06,04,12,22,18.20
2008,06,04,12,23,18.20
2008,06,04,12,24,18.20
2008,06,04,12,25,18.20
2008,06,04,12,26,18.20
2008,06,04,12,27,18.20
2008,06,04,12,28,18.20
2008,06,04,12,29,18.20
2008,06,04,12,30,18.20
2008,06,04,12,31,18.20
2008,06,04,12,32,18.20
2008,06,04,12,33,18.20
2008,06,04,12,34,18.20
2008,06,04,12,35,18.20
2008,06,04,12,36,18.10
2008,06,04,12,37,18.00
2008,06,04,12,38,17.90
2008,06,04,12,39,17.80
2008,06,04,12,40,17.80
2008,06,04,12,41,17.80
2008,06,04,12,42,17.80
2008,06,04,12,43,17.80
2008,06,04,12,44,17.80
2008,06,04,12,45,17.90
2008,06,04,12,46,17.90
2008,06,04,12,47,18.00
2008,06,04,12,48,18.10
2008,06,04,12,49,18.10
2008,06,04,12,50,18.10
2008,06,04,12,51,18.10
2008,06,04,12,52,18.10
2008,06,04,12,53,18.10
2008,06,04,12,54,18.10
2008,06,04,12,55,18.00
2008,06,04,12,56,17.90
2008,06,04,12,57,17.90
2008,06,04,12,58,17.80
2008,06,04,12,59,17.80
2008,06,04,13,00,17.80
2008,06,04,13,01,17.80
2008,06,04,13,02,17.80
2008,06,04,13,03,17.90
2008,06,04,13,04,17.90
2008,06,04,13,05,17.90
2008,06,04,13,06,17.90
2008,06,04,13,07,17.90
2008,06,04,13,08,17.90
2008,06,04,13,09,17.90
2008,06,04,13,10,18.00
2008,06,04,13,11,18.00
2008,06,04,13,12,18.00
2008,06,04,13,13,18.10
2008,06,04,13,14,18.10
2008,06,04,13,15,18.10
2008,06,04,13,16,18.10
2008,06,04,13,17,18.10
2008,06,04,13,18,18.00
2008,06,04,13,19,17.90
2008,06,04,13,20,17.90
2008,06,04,13,21,17.90
2008,06,04,13,22,17.90
2008,06,04,13,23,17.90
2008,06,04,13,24,17.90
2008,06,04,13,25,17.90
2008,06,04,13,26,17.90
2008,06,04,13,27,18.00
2008,06,04,13,28,18.10
2008,06,04,13,29,18.10
2008,06,04,13,30,18.20
2008,06,04,13,31,18.20
2008,06,04,13,32,18.30
2008,06,04,13,33,18.40
2008,06,04,13,34,18.50
2008,06,04,13,35,18.60
2008,06,04,13,36,18.70
2008,06,04,13,37,18.70
2008,06,04,13,38,18.70
2008,06,04,13,39,18.70
2008,06,04,13,40,18.70
2008,06,04,13,41,18.70
2008,06,04,13,42,18.70
2008,06,04,13,43,18.70
2008,06,04,13,44,18.80
2008,06,04,13,45,18.80
2008,06,04,13,46,18.80
2008,06,04,13,47,18.80
2008,06,04,13,48,18.80
2008,06,04,13,49,18.90
2008,06,04,13,50,18.90
2008,06,04,13,51,19.00
2008,06,04,13,52,19.00
2008,06,04,13,53,19.10
2008,06,04,13,54,19.10
2008,06,04,13,55,19.20
2008,06,04,13,56,19.20
2008,06,04,13,57,19.20
2008,06,04,13,58,19.20
2008,06,04,13,59,19.10
2008,06,04,14,00,19.10
2008,06,04,14,01,19.00
2008,06,04,14,02,18.90
2008,06,04,14,03,18.90
2008,06,04,14,04,18.80
2008,06,04,14,05,18.80
2008,06,04,14,06,18.70
2008,06,04,14,07,18.70
2008,06,04,14,08,18.70
2008,06,04,14,09,18.70
2008,06,04,14,10,18.60
2008,06,04,14,11,18.60
2008,06,04,14,12,18.60
2008,06,04,14,13,18.60
2008,06,04,14,14,18.60
2008,06,04,14,15,18.70
2008,06,04,14,16,18.70
2008,06,04,14,17,18.70
2008,06,04,14,18,18.70
2008,06,04,14,19,18.80
2008,06,04,14,20,18.80
2008,06,04,14,21,18.80
2008,06,04,14,22,18.80
2008,06,04,14,23,18.90
2008,06,04,14,24,18.90
2008,06,04,14,25,18.90
2008,06,04,14,26,18.90
2008,06,04,14,27,18.90
2008,06,04,14,28,19.00
2008,06,04,14,29,19.10
2008,06,04,14,30,19.10
2008,06,04,14,31,19.00
2008,06,04,14,32,19.00
2008,06,04,14,33,19.00
2008,06,04,14,34,19.10
2008,06,04,14,35,19.10
2008,06,04,14,36,19.10
2008,06,04,14,37,19.10
2008,06,04,14,38,19.10
2008,06,04,14,39,19.20
2008,06,04,14,40,19.20
2008,06,04,14,41,19.20
2008,06,04,14,42,19.20
2008,06,04,14,43,19.20
2008,06,04,14,44,19.20
2008,06,04,14,45,19.20
2008,06,04,14,46,19.20
2008,06,04,14,47,19.20
2008,06,04,14,48,19.20
2008,06,04,14,49,19.20
2008,06,04,14,50,19.20
2008,06,04,14,51,19.20
2008,06,04,14,52,19.10
2008,06,04,14,53,19.10
2008,06,04,14,54,18.90
2008,06,04,14,55,18.90
2008,06,04,14,56,18.90
2008,06,04,14,57,18.90
2008,06,04,14,58,18.90
2008,06,04,14,59,19.00
2008,06,04,15,00,19.00
2008,06,04,15,01,19.10
2008,06,04,15,02,19.10
2008,06,04,15,03,19.20
2008,06,04,15,04,19.20
2008,06,04,15,05,19.30
2008,06,04,15,06,19.40
2008,06,04,15,07,19.40
2008,06,04,15,08,19.40
2008,06,04,15,09,19.50
2008,06,04,15,10,19.40
2008,06,04,15,11,19.40
2008,06,04,15,12,19.30
2008,06,04,15,13,19.30
2008,06,04,15,14,19.30
2008,06,04,15,15,19.30
2008,06,04,15,16,19.30
2008,06,04,15,17,19.30
2008,06,04,15,18,19.20
2008,06,04,15,19,19.20
2008,06,04,15,20,19.20
2008,06,04,15,21,19.20
2008,06,04,15,22,19.20
2008,06,04,15,23,19.30
2008,06,04,15,24,19.30
2008,06,04,15,25,19.30
2008,06,04,15,26,19.30
2008,06,04,15,27,19.30
2008,06,04,15,28,19.30
2008,06,04,15,29,19.30
2008,06,04,15,30,19.30
2008,06,04,15,31,19.40
2008,06,04,15,32,19.40
2008,06,04,15,33,19.40
2008,06,04,15,34,19.40
2008,06,04,15,35,19.40
2008,06,04,15,36,19.40
2008,06,04,15,37,19.30
2008,06,04,15,38,19.30
2008,06,04,15,39,19.30
2008,06,04,15,40,19.30
2008,06,04,15,41,19.30
2008,06,04,15,42,19.30
2008,06,04,15,43,19.30
2008,06,04,15,44,19.30
2008,06,04,15,45,19.20
2008,06,04,15,46,19.10
2008,06,04,15,47,19.00
2008,06,04,15,48,18.90
2008,06,04,15,49,18.90
2008,06,04,15,50,18.90
2008,06,04,15,51,18.90
2008,06,04,15,52,18.90
2008,06,04,15,53,18.90
2008,06,04,15,54,18.90
2008,06,04,15,55,18.90
2008,06,04,15,56,18.80
2008,06,04,15,57,18.80
2008,06,04,15,58,18.80
2008,06,04,15,59,18.80
2008,06,04,16,00,18.70
2008,06,04,16,01,18.70
2008,06,04,16,02,18.70
2008,06,04,16,03,18.60
2008,06,04,16,04,18.60
2008,06,04,16,05,18.50
2008,06,04,16,06,18.40
2008,06,04,16,07,18.40
2008,06,04,16,08,18.30
2008,06,04,16,09,18.30
2008,06,04,16,10,18.20
2008,06,04,16,11,18.20
2008,06,04,16,12,18.20
2008,06,04,16,13,18.20
2008,06,04,16,14,18.20
2008,06,04,16,15,18.10
2008,06,04,16,16,18.10
2008,06,04,16,17,18.00
2008,06,04,16,18,18.00
2008,06,04,16,19,17.90
2008,06,04,16,20,17.80
2008,06,04,16,21,17.80
2008,06,04,16,22,17.70
2008,06,04,16,23,17.70
2008,06,04,16,24,17.60
2008,06,04,16,25,17.60
2008,06,04,16,26,17.60
2008,06,04,16,27,17.50
2008,06,04,16,28,17.40
2008,06,04,16,29,17.40
2008,06,04,16,30,17.30
2008,06,04,16,31,17.30
2008,06,04,16,32,17.30
2008,06,04,16,33,17.30
2008,06,04,16,34,17.30
2008,06,04,16,35,17.20
2008,06,04,16,36,17.20
2008,06,04,16,37,17.20
2008,06,04,16,38,17.20
2008,06,04,16,39,17.20
2008,06,04,16,40,17.20
2008,06,04,16,41,17.10
2008,06,04,16,42,17.10
2008,06,04,16,43,17.10
2008,06,04,16,44,17.20
2008,06,04,16,45,17.20
2008,06,04,16,46,17.20
2008,06,04,16,47,17.20
2008,06,04,16,48,17.30
2008,06,04,16,49,17.30
2008,06,04,16,50,17.30
2008,06,04,16,51,17.20
2008,06,04,16,52,17.20
2008,06,04,16,53,17.10
2008,06,04,16,54,17.00
2008,06,04,16,55,16.90
2008,06,04,16,56,16.90
2008,06,04,16,57,16.80
2008,06,04,16,58,16.80
2008,06,04,16,59,16.90
2008,06,04,17,00,16.80
2008,06,04,17,01,16.80
2008,06,04,17,02,16.80
2008,06,04,17,03,16.80
2008,06,04,17,04,16.80
2008,06,04,17,05,16.80
2008,06,04,17,06,16.80
2008,06,04,17,07,16.80
2008,06,04,17,08,16.90
2008,06,04,17,09,16.90
2008,06,04,17,10,17.00
2008,06,04,17,11,17.00
2008,06,04,17,12,17.00
2008,06,04,17,13,17.10
2008,06,04,17,14,17.00
2008,06,04,17,15,16.90
2008,06,04,17,16,16.90
2008,06,04,17,17,16.90
2008,06,04,17,18,16.90
2008,06,04,17,19,16.90
2008,06,04,17,20,16.80
2008,06,04,17,21,16.80
2008,06,04,17,22,16.70
2008,06,04,17,23,16.70
2008,06,04,17,24,16.70
2008,06,04,17,25,16.70
2008,06,04,17,26,16.70
2008,06,04,17,27,16.60
2008,06,04,17,28,16.60
2008,06,04,17,29,16.60
2008,06,04,17,30,16.60
2008,06,04,17,31,16.60
2008,06,04,17,32,16.60
2008,06,04,17,33,16.70
2008,06,04,17,34,16.80
2008,06,04,17,35,16.90
2008,06,04,17,36,16.90
2008,06,04,17,37,16.90
2008,06,04,17,38,17.00
2008,06,04,17,39,17.10
2008,06,04,17,40,17.10
2008,06,04,17,41,17.10
2008,06,04,17,42,17.10
2008,06,04,17,43,17.10
2008,06,04,17,44,17.10
2008,06,04,17,45,17.00
2008,06,04,17,46,17.00
2008,06,04,17,47,17.10
2008,06,04,17,48,17.10
2008,06,04,17,49,17.10
2008,06,04,17,50,17.10